Погода в Борисполе

Украина / Киевская область     50°20′53″N   30°57′21″E
темп.,
°C
ветер,
м/с
пор.,
м/с
влажн.,
%
обл.,
%
осадки,
мм/ч
давл.,
гПа
погр.,
м
17 апреля, сб
сб1700:00+5вюв3490100 0.1 1014319
03:00+5в229385 0.1 1015240
06:00+5юв3495100 0.1 1015375
09:00+5ююз2494100 0.8 1017345
12:00+6зюз3392100 0.2 1018429
15:00+6зюз3492100 0.3 1019700
18:00+6юз2391100 0.1 1019554
21:00+6зюз249267 0.1 1019159
18 апреля, вс
вс1800:00+6зюз359299 0.0 1018147
03:00+5зюз359466 0.0 1018169
06:00+4зюз36966 0.0 1017129
09:00+7зюз687880 0.0 1016428
12:00+8з61079100 0.0 1016830
15:00+9з4783100 0.1 1016486
18:00+9ссз3589100 0.0 1017477
21:00+6св478799 0.1 1018399
19 апреля, пн
пн1900:00+4св369396 0.0 1019322
03:00+3св2390100 0.0 101955
06:00+3св349398 0.0 101979
09:00+6св2378100 0.0 1019361
12:00+11св3463100 0.0 10181112
15:00+13св4452100 0.1 10171727
18:00+10св5669100 0.1 1017785
21:00+7ссв37867 0.1 1016169
20 апреля, вт
вт2000:00+7св348788 0.0 1015141
03:00+7ссв3784100 0.1 1013216
06:00+7ссв5889100 0.1 1012268
09:00+7ссв6983100 0.1 1010473
12:00+10ссв7966100 0.1 10091232
15:00+10ссв71070100 0.1 10061184
18:00+9с81374100 0.2 1004853
21:00+8ссз91475100 0.2 1004806
21 апреля, ср
ср2100:00+6сз81482100 0.0 1004684
03:00+5зсз7138186 0.3 1006660
06:00+5зсз61178100 0.0 1008641
09:00+7зсз6969100 0.0 10101274
12:00+8зсз7857100 0.0 10121502
15:00+9з6758100 0.0 10141411
18:00+11зюз265645 0.0 1015980
21:00+8ююв3465100 0.0 101667